Location: Eldred Sherwood Park Lake Dam
(42.9416°N, 93.5655°W)
Time: 08:08:28
(UTC+00:00)

Tiros 1 - Pass Details

Date: 06 November 2024
Orbit: 622 x 653 km, 48.4° (Epoch: 06 December)

Event Time Altitude Azimuth Distance (km) Brightness Sun altitude
Rises 00:42:25 0° 198° (SSW) 2,944 10.8 -18.9°
Reaches altitude 10° 00:45:14 10° 182° (S) 2,042 9.8 -19.4°
Enters shadow 00:47:48 19° 150° (SSE) 1,531 8.8 -19.9°
